URMN Weather Reports


Display with metric or nautical units.
time (UTC)temp
F
wind
direction
speed
MPH
gust
MPH
rain 1hr
in
rain 24hr
in
rain mn
in
humidity
%
barometer
mb
20260508153042 60 190 7.0 0.0 0.00 0.00 0.00 67 1018.0
20260508150041 60 200 9.0 0.0 0.00 0.00 0.00 77 1018.0
20260508140041 64 10 7.0 0.0 0.00 0.00 0.00 63 1018.0
20260508133042 68 50 7.0 0.0 0.00 0.00 0.00 49 1017.0
20260508123043 69 360 4.0 0.0 0.00 0.00 0.00 46 1017.0
20260508120043 69 40 4.0 0.0 0.00 0.00 0.00 46 1017.0
20260508113043 69 20 4.0 0.0 0.00 0.00 0.00 43 1017.0
20260508110042 69 290 2.0 0.0 0.00 0.00 0.00 46 1018.0
20260508103042 69 290 2.0 0.0 0.00 0.00 0.00 46 1018.0
20260508100041 68 50 4.0 0.0 0.00 0.00 0.00 49 1018.0
20260508093043 68 50 4.0 0.0 0.00 0.00 0.00 49 1018.0
20260508090042 66 10 4.0 0.0 0.00 0.00 0.00 48 1019.0
20260508083042 66 10 4.0 0.0 0.00 0.00 0.00 48 1019.0
20260508080041 68 20 7.0 0.0 0.00 0.00 0.00 45 1019.0
20260508073042 66 30 4.0 0.0 0.00 0.00 0.00 48 1019.0
20260508070042 66 0 0.0 0.0 0.00 0.00 0.00 48 1019.0
20260508063042 64 70 2.0 0.0 0.00 0.00 0.00 51 1019.0
20260508060042 59 240 2.0 0.0 0.00 0.00 0.00 62 1019.0
20260508053042 59 240 2.0 0.0 0.00 0.00 0.00 62 1019.0
20260508050043 55 290 4.0 0.0 0.00 0.00 0.00 66 1019.0
20260508043042 55 290 4.0 0.0 0.00 0.00 0.00 66 1019.0
20260508040042 51 240 7.0 0.0 0.00 0.00 0.00 76 1019.0
20260508033042 51 240 7.0 0.0 0.00 0.00 0.00 76 1019.0
20260508030044 51 290 2.0 0.0 0.00 0.00 0.00 66 1018.0
20260508023043 51 290 2.0 0.0 0.00 0.00 0.00 66 1018.0
20260508020042 50 270 7.0 0.0 0.00 0.00 0.00 71 1018.0
20260508013046 50 270 7.0 0.0 0.00 0.00 0.00 71 1018.0
20260508003042 51 230 4.0 0.0 0.00 0.00 0.00 66 1018.0
20260508000043 51 220 4.0 0.0 0.00 0.00 0.00 66 1018.0
20260507233042 51 220 4.0 0.0 0.00 0.00 0.00 66 1018.0
20260507230043 53 240 4.0 0.0 0.00 0.00 0.00 62 1018.0
20260507223042 53 240 4.0 0.0 0.00 0.00 0.00 62 1018.0
20260507220043 53 210 7.0 0.0 0.00 0.00 0.00 62 1018.0
20260507213042 53 210 7.0 0.0 0.00 0.00 0.00 62 1018.0
20260507210043 53 230 7.0 0.0 0.00 0.00 0.00 66 1018.0
20260507203043 53 230 7.0 0.0 0.00 0.00 0.00 66 1018.0
20260507200043 50 230 7.0 0.0 0.00 0.00 0.00 76 1018.0
20260507193044 50 230 7.0 0.0 0.00 0.00 0.00 76 1018.0
20260507190044 57 260 4.0 0.0 0.00 0.00 0.00 58 1018.0
20260507180044 55 240 4.0 0.0 0.00 0.00 0.00 62 1017.0
20260507173044 55 240 4.0 0.0 0.00 0.00 0.00 62 1017.0
20260507170044 62 230 2.0 0.0 0.00 0.00 0.00 45 1017.0
20260507163046 62 230 2.0 0.0 0.00 0.00 0.00 45 1017.0
20260507160043 62 350 7.0 0.0 0.00 0.00 0.00 51 1017.0